Location: Camp Crooked Creek
(37.9149°N, 85.6607°W)
Time: 20:03:16
(UTC-04:00)

Daily predictions for brighter satellites

Satellite Brightness Start Highest point End
(mag) Time Altitude Azimuth Time Altitude Azimuth Time Altitude Azimuth
H-2A R/B 4.1 21:32:54 10° SSE 21:35:01 14° SE 21:38:39 10° ESE
Cosmos 1833 4.3 21:33:28 10° S 21:39:03 58° ESE 21:44:38 10° NNE
USA 229 DEB 3.8 21:32:12 10° SSW 21:39:08 87° ESE 21:46:10 10° NNE
USA 229 3.8 21:32:19 10° SSW 21:39:14 86° ESE 21:46:16 10° NNE
AVUM R/B 2.3 21:41:01 10° SSW 21:43:17 88° ESE 21:45:46 10° NNE
YAOGAN 11 4.1 21:40:53 10° SSE 21:45:12 87° ENE 21:49:35 10° NNW
H-2A R/B 3.7 21:44:46 10° S 21:48:29 48° W 21:52:11 10° NNW
Cosmos 1939 Rocket 3.3 21:46:14 10° SSE 21:50:00 44° ENE 21:53:44 10° N
H-2A R/B 2.5 21:46:01 10° SSE 21:50:24 52° ENE 21:54:48 10° N
ATLAS CENTAUR R/B 3.5 21:47:31 10° WNW 21:51:03 24° WSW 21:54:22 10° SSW
Cosmos 773 Rocket 4.1 21:46:12 10° NNW 21:51:23 66° ENE 21:56:35 10° SSE
CZ-4 DEB 3.5 21:48:19 10° S 21:51:27 52° W 21:54:36 10° NNW
Cosmos 1328 Rocket 3.8 21:48:38 10° N 21:53:05 77° W 21:57:31 10° S
Cosmos 1437 Rocket 2.7 21:49:41 10° N 21:53:30 63° E 21:57:18 10° SSE
COSMOS 2428 4.0 21:51:55 10° N 21:56:39 26° ENE 22:01:17 10° ESE
SPOT 5 3.5 21:53:24 10° SE 21:57:34 37° ENE 22:01:59 10° N
NOSS 3-1 (A) 4.1 21:54:07 10° S 21:59:02 29° ESE 22:04:17 10° NE
SJ-11-01 4.4 21:57:24 10° SSE 22:02:07 86° WSW 22:06:52 10° NNW
PSLV R/B 4.4 22:00:36 13° SE 22:02:43 26° ENE 22:05:20 10° NNE
Cosmos 2219 Rocket 4.1 22:01:18 10° NNE 22:04:38 16° NE 22:07:56 10° E
Cosmos 304 Rocket 4.0 22:00:35 10° N 22:05:19 54° ENE 22:09:26 13° SE
Meteor 2-2 Rocket 4.4 21:59:51 10° N 22:05:54 86° E 22:11:56 10° S
Cosmos 1500 Rocket 4.4 22:09:49 10° SSW 22:14:04 51° W 22:18:22 10° N
Cosmos 1437 2.7 22:15:23 10° S 22:18:39 78° E 22:21:56 10° NNE
Cosmos 1328 3.8 22:15:46 10° S 22:19:39 63° E 22:23:35 10° NNE
ATLAS 2AS CENTAUR R/B 4.1 22:18:20 15° SE 22:21:36 20° ESE 22:26:49 10° ENE
Cosmos 1726 3.6 22:18:52 10° NNE 22:21:54 23° ENE 22:23:25 18° ESE
Envisat 3.0 22:19:28 10° SSE 22:24:28 87° WSW 22:29:35 10° NNW
ERS-1 Rocket 3.8 22:20:46 10° S 22:25:37 49° W 22:30:30 10° NNW
Cosmos 2219 3.2 22:22:03 10° SSW 22:27:46 79° ESE 22:33:32 10° NNE
Delta 2 Rocket 2.9 22:26:23 10° WSW 22:29:58 59° S 22:31:53 23° ESE
BREEZE M DEB (TANK) 4.2 22:33:07 10° WSW 22:34:31 13° SSW 22:35:24 12° S
Cosmos 2237 Rocket 4.0 22:32:18 10° N 22:36:18 19° NE 22:39:42 12° E
Cosmos 2322 3.9 22:32:56 10° NNW 22:38:38 71° WSW 22:43:02 17° S
SL-23 DEB 3.9 22:33:47 10° NW 22:38:44 68° NE 22:40:32 27° ESE
Cosmos 2322 Rocket 4.2 22:34:39 10° NW 22:38:51 22° W 22:43:04 10° SSW
Cosmos 1271 Rocket 4.1 22:35:56 10° NNE 22:39:04 23° ENE 22:40:05 21° E
Cosmos 2112 Rocket 4.0 22:34:26 10° NNW 22:39:43 87° WSW 22:43:25 20° SSE
Cosmos 2151 3.5 22:36:24 10° SSW 22:40:32 58° W 22:44:42 10° N
Cosmos 1703 4.3 22:41:16 25° ESE 22:41:59 27° E 22:45:18 10° NNE
SL-14 R/B 3.5 22:40:06 25° SSE 22:42:09 52° E 22:46:03 10° NNE
Cosmos 1937 Rocket 4.0 22:41:23 21° SSE 22:44:18 39° ESE 22:49:08 10° NE
Meteor 1-4 Rocket 3.7 22:41:21 10° NNE 22:44:38 28° ENE 22:45:29 26° E
Cosmos 2242 Rocket 4.4 22:40:57 10° NNE 22:45:04 35° ENE 22:46:44 26° ESE
Terra 3.4 22:43:25 17° E 22:45:17 21° ENE 22:48:49 10° NNE
NOSS 3-1 (C) 3.3 22:39:32 10° SSW 22:45:20 88° ESE 22:51:47 10° NNE
Cosmos 2298 Rocket 4.0 22:40:36 10° S 22:45:52 70° ESE 22:51:11 10° NNE
Meteor 1-27 4.2 22:41:28 10° N 22:47:08 67° E 22:50:34 24° SSE
Cosmos 2360 Rocket 2.7 22:42:35 10° NNW 22:48:06 56° WSW 22:52:22 17° S
MetOp-B 4.1 22:44:55 19° SSE 22:48:51 85° WSW 22:54:15 10° NNW
SL-16 R/B 4.4 22:46:29 10° WNW 22:50:21 19° W 22:54:12 10° SW
NOAA 11 4.4 22:47:19 25° SE 22:50:24 56° ENE 22:55:43 10° N
Sich 1 3.1 22:48:46 25° SSE 22:51:13 62° E 22:55:34 10° NNE
FALCON 9 R/B 4.3 22:16:53 10° WSW 22:52:37 76° S 23:00:29 10° E
CZ-4 SHROUD 4.1 22:51:29 23° SSW 22:53:05 43° W 22:56:06 10° NNW
USA 245 2.1 22:53:37 65° ENE 22:53:37 65° ENE 22:55:57 10° N
Cosmos 1633 Rocket 3.0 22:52:39 27° SSE 22:54:54 64° E 22:59:14 10° NNE
DELTA 2 R/B (1) 3.8 22:50:08 10° W 22:55:33 55° SSW 22:58:07 30° SE
Cosmos 2058 3.2 22:52:03 13° SSW 22:55:35 65° W 22:59:40 10° N
OAO 2 Rocket 3.6 22:55:28 10° WSW 23:00:36 49° SSE 23:03:20 26° ESE
Cosmos 1626 3.7 23:01:03 21° E 23:01:03 21° E 23:03:34 10° NE
SL-08 RB Rocket 3.6 23:06:50 38° SSE 23:08:29 73° ENE 23:12:58 10° N
H-2A R/B 2.7 23:08:02 31° ESE 23:10:05 45° ENE 23:15:14 10° N
CZ-4 R/B 3.8 23:05:23 10° NNE 23:10:20 89° ESE 23:13:19 24° SSW
Cosmos 1805 Rocket 4.5 23:06:22 11° SSW 23:10:28 48° W 23:14:46 10° N
CZ-4B R/B 3.9 23:06:52 10° N 23:12:05 65° WNW 23:17:02 11° SSW
Cosmos 2227 Rocket 2.4 23:11:30 33° SSE 23:13:33 48° ESE 23:18:58 10° NE
YAOGAN 6 3.6 23:12:45 27° SSW 23:14:12 41° W 23:17:39 10° NNW
Tiangong 1 1.6 23:13:03 10° W 23:16:06 55° NNW 23:17:13 33° NE
Cosmos 1300 3.4 23:12:41 10° NNW 23:16:24 48° W 23:17:53 31° SSW
SPOT 1/Viking Rocket 4.0 23:19:48 27° S 23:22:28 57° W 23:27:32 10° NNW
Cosmos 1241 Rocket 4.3 23:22:14 21° SSW 23:26:31 69° ESE 23:32:43 10° NE
Cosmos 1898 Rocket 4.1 23:22:14 10° SSW 23:27:18 56° WNW 23:32:26 10° N
Cosmos 2333 Rocket 2.5 23:23:45 10° NNW 23:29:26 57° ENE 23:31:18 39° ESE
IGS 5A 3.7 23:29:10 48° E 23:29:35 50° ENE 23:33:37 10° N
SL-16 R/B 3.8 23:25:26 10° N 23:29:52 23° NE 23:32:01 18° E
Cosmos 1125 Rocket 4.3 23:33:30 33° E 23:33:30 33° E 23:38:04 10° NE
Cosmos 220 Rocket 4.3 23:31:40 30° SW 23:33:45 66° WNW 23:38:11 10° NNE
Cosmos 1455 2.4 23:35:17 10° N 23:38:49 59° ENE 23:38:49 59° ENE
Nadezhda 1 Rocket 3.9 23:34:03 10° N 23:40:10 81° E 23:42:17 44° SSE
SAR-Lupe-2 3.9 23:40:40 56° NE 23:40:40 56° NE 23:43:51 10° N
Cosmos 2297 Rocket 2.3 23:39:28 48° SSE 23:40:33 56° ESE 23:46:05 10° NNE
COSMOS 2428 3.5 23:35:43 10° NW 23:41:01 42° WSW 23:43:18 29° SSW
ARGOS 3.9 23:41:02 28° SSW 23:43:28 45° W 23:48:37 10° NNW
Cosmos 1470 Rocket 3.7 23:45:42 53° SW 23:46:33 68° W 23:50:51 10° N
Cosmos 1933 Rocket 3.7 23:46:48 52° SW 23:47:45 70° W 23:52:13 10° N
Cosmos 2219 Rocket 2.2 23:43:35 10° NNW 23:49:11 75° WSW 23:50:35 51° S
Cosmos 1745 Rocket 4.3 23:47:12 26° SSW 23:50:46 64° W 23:56:54 10° N
Cosmos 1726 4.3 23:54:24 10° NW 23:57:07 19° W 23:58:06 17° WSW
